RH
50 60 60 68 36 35 39 45 49 51 28 21 18 17 19 16 15 13 10 7 6 4 3 4 6 7 9 10 11 12 12 10
49 43 42 33 33 37 43 46 50 57 40 23 17 19 19 15 13 11 8 6 4 3 5 7 9 10 12 16 19 20 23 28
52 36 23 32 35 39 44 46 51 60 43 22 17 20 16 14 12 8 6 4 3 4 7 10 11 12 18 26 31 37 45 54
55 23 24 33 35 39 42 46 52 61 36 20 19 19 15 13 9 7 4 3 4 7 12 12 11 14 24 38 52 67 72 77
58 23 26 32 35 38 40 45 53 60 27 18 21 17 14 11 8 5 3 4 7 13 13 11 11 25 45 61 82 88 89 84
57 28 27 32 34 36 39 47 59 48 21 19 20 16 13 9 6 4 3 6 12 15 12 10 18 43 61 85 94 94 94 94
60 26 28 32 35 36 40 51 62 29 18 21 17 15 11 7 5 4 3 8 13 14 11 11 31 57 81 92 90 94 95 93
40 25 31 32 34 37 46 60 44 21 20 20 16 14 9 6 4 3 4 8 14 14 11 19 49 75 92 94 94 94 96 96
29 28 30 31 34 41 54 58 26 19 22 18 16 12 7 5 4 3 3 9 15 14 13 37 80 96 94 97 98 97 96 97
26 27 29 32 38 50 62 32 20 22 20 17 15 10 7 5 4 3 3 11 16 13 24 81 96 98 96 96 96 96 96 96
26 28 31 36 47 60 36 22 20 22 19 17 13 8 7 5 3 2 4 15 14 18 80 98 97 96 97 96 96 96 95 97
27 29 34 45 57 39 23 20 22 21 18 17 12 8 7 5 3 2 7 15 16 39 99 97 96 96 96 96 96 98 97 96
29 31 41 52 38 25 20 22 22 20 19 16 10 8 8 5 2 2 9 15 20 84 96 97 96 95 100 98 97 96 95 97
30 38 47 37 25 22 21 22 21 20 18 15 11 9 8 4 2 3 11 16 37 97 96 95 95 96 96 95 96 96 96 97
35 43 36 23 22 21 22 22 21 20 19 15 11 10 8 4 2 3 12 19 63 96 96 95 97 96 96 96 99 98 98 99
38 35 22 21 21 22 22 22 22 20 19 16 12 10 8 4 2 4 13 23 76 96 96 96 96 99 95 99 99 99 100 100
33 23 19 21 21 22 22 22 22 21 20 16 13 11 8 4 2 3 12 32 94 97 96 95 96 98 98 88 96 100 100 89
24 16 20 20 23 22 22 23 22 22 20 18 14 12 9 4 2 3 11 34 96 96 96 96 96 98 100 98 98 98 52 84
15 15 20 20 23 22 21 22 23 22 22 19 16 13 10 5 2 2 9 34 94 96 96 97 98 98 100 100 98 98 100 90
Wind_Speed
16 15 13 12 11 9 10 15 20 26 29 31 32 34 35 34 35 35 35 34 34 34 33 32 32 32 31 31 31 30 31 31
18 16 17 13 10 9 12 17 22 27 32 31 31 31 32 33 34 34 34 35 34 33 31 31 31 30 30 31 31 30 29 30
19 16 15 12 10 10 14 19 24 29 33 33 31 32 32 33 34 35 36 34 33 32 31 30 31 32 31 30 30 29 28 29
19 14 12 11 10 11 16 21 26 30 32 32 32 32 32 32 32 33 34 34 33 32 31 31 31 32 31 29 30 30 31 25
17 12 12 12 10 13 18 22 27 33 32 31 32 31 31 31 32 33 33 33 31 30 29 30 32 34 33 32 29 28 28 24
17 12 12 11 10 15 19 23 27 32 31 30 30 29 30 30 31 32 32 31 29 28 29 31 33 35 33 31 30 29 27 27
17 13 9 7 12 16 19 24 29 30 29 29 28 28 29 30 32 32 31 28 26 27 30 32 33 33 32 31 29 29 29 30
17 9 6 9 14 17 19 24 29 28 28 27 27 29 31 33 33 33 32 29 26 27 31 33 34 33 32 32 32 31 31 30
12 8 9 11 14 15 19 26 26 26 26 26 27 29 30 32 32 32 32 28 28 31 33 34 34 34 33 33 32 31 29 29
12 8 8 11 12 15 21 22 23 24 24 25 28 28 29 31 32 32 30 27 29 32 34 35 33 32 32 34 32 28 26 25
10 8 8 9 12 16 19 21 21 22 23 26 26 27 29 31 32 31 28 26 29 33 33 33 32 34 34 34 30 28 25 18
8 6 5 9 13 16 18 18 19 22 24 24 24 26 30 32 31 29 26 27 32 34 35 34 35 35 36 32 24 20 20 16
5 3 6 9 13 15 15 17 20 22 23 23 25 27 29 31 30 26 26 30 33 37 33 32 34 37 34 29 21 12 11 12
3 4 6 10 12 13 16 18 20 21 22 24 24 27 29 31 29 26 28 30 35 34 31 33 36 32 25 24 23 23 22 22
3 4 6 9 11 14 16 18 20 21 22 23 24 27 30 32 31 28 29 34 36 32 34 36 38 28 25 26 32 30 30 29
3 3 7 8 11 13 15 18 20 21 22 23 24 27 31 32 32 28 31 34 34 33 33 37 35 26 35 35 33 35 27 31
2 4 5 9 11 13 16 17 20 21 23 24 25 27 31 33 33 29 30 32 32 32 35 39 40 32 35 34 38 34 29 35
1 2 6 9 11 13 15 17 20 23 24 25 26 28 31 34 33 29 29 31 33 33 36 43 46 39 36 37 32 35 36 28
2 4 6 9 11 13 15 18 21 24 25 26 27 29 31 33 35 30 29 32 34 34 40 46 48 40 33 39 43 39 43 32
Wind_Direction
204 202 206 212 251 286 316 335 339 339 338 340 337 336 334 331 330 329 327 326 327 326 323 319 317 315 314 309 305 299 294 288
205 217 225 238 264 292 319 332 336 336 336 336 334 331 329 329 329 325 328 330 328 325 321 318 315 315 313 309 304 299 293 290
207 225 239 246 269 299 319 327 330 334 333 332 330 330 330 331 330 331 331 330 327 324 321 320 319 317 313 308 303 298 293 288
210 235 239 248 272 303 315 320 325 330 330 328 331 332 333 330 330 332 332 330 328 326 324 321 317 313 311 306 303 300 295 290
209 233 235 250 276 301 308 317 322 327 328 329 331 332 332 332 335 335 332 331 329 325 322 319 317 316 314 311 308 304 298 294
207 230 239 257 286 299 309 312 320 325 328 331 331 333 333 336 338 337 336 333 327 324 323 323 321 318 315 313 310 305 298 292
203 229 240 268 290 305 307 313 321 326 330 331 333 334 339 342 343 340 337 332 329 327 326 324 322 318 316 313 307 302 295 287
215 228 233 273 295 303 309 316 322 330 331 332 337 342 346 347 344 340 338 338 334 331 329 328 324 321 317 313 309 300 290 281
208 212 250 280 296 306 314 320 328 329 332 339 343 350 350 348 344 344 343 340 338 335 334 332 328 324 319 313 307 300 291 284
201 222 262 285 305 312 318 324 327 334 341 345 353 352 352 350 350 348 346 345 341 338 339 335 331 325 321 317 313 307 298 293
197 234 272 304 311 317 323 330 336 341 348 355 355 355 355 355 353 352 352 348 345 346 343 342 337 336 329 327 326 327 309 297
203 251 298 309 318 326 334 337 344 351 357 359 359 1 0 359 358 358 356 354 353 352 355 349 347 341 337 337 344 336 331 319
213 265 299 320 330 336 338 350 354 359 3 5 7 5 5 5 3 3 4 4 358 2 358 352 352 356 352 1 9 8 15 19
212 274 320 334 338 340 357 359 1 5 10 13 10 10 11 11 9 13 12 8 8 5 2 2 7 3 15 32 49 58 70 78
221 299 343 342 345 2 4 6 7 13 18 18 16 16 17 16 17 21 17 16 10 13 12 13 16 21 34 52 69 77 80 90
250 331 353 351 7 10 13 12 15 20 25 24 23 23 23 21 25 25 24 20 14 20 21 22 28 42 61 70 76 77 78 74
254 9 355 18 16 19 23 18 23 27 33 30 29 29 28 27 30 31 29 24 25 31 30 31 46 57 68 73 69 75 76 89
91 8 34 28 25 30 28 26 30 35 38 36 35 35 34 33 36 38 34 29 36 42 42 41 46 60 70 76 74 90 94 90
114 60 46 43 36 41 35 33 36 41 42 42 41 40 39 38 41 41 40 39 41 45 52 52 51 63 71 79 77 99 87 87